Regional Weather Roundup
Issued by NWS

Home | Current Version | Previous Version | Text Only | Print | Product List | Glossary On
Versions: 1 2 3 4 5 6 7 8 9 10 11 12 13 14 15 16 17 18 19 20 21 22 23 24 25 26 27
000
ASPQ40 PGUM 310510
RWRPQ
WEATHER ROUNDUP FOR THE MARIANAS AND MICRONESIA
NATIONAL WEATHER SERVICE TIYAN GU
300 PM CHST SAT JUL 31 2021

GUZ001>004-310600-
MARIANA ISLANDS-

CITY           SKY/WX    TMP DP  RH WIND       PRES   REMARKS
GUAM AIRPORT   PTSUNNY   82  77  83 NW9       29.78F HX  91
ANDERSEN AFB   PTSUNNY   79  75  89 N7        29.77F
ROTA AIRPORT   LGT RAIN  81  73  78 W12       29.75F
TINIAN AP      MOSUNNY   88  75  66 W7        29.75F HX  97
SAIPAN AP      MOSUNNY   88  79  74 W8        29.76F HX 102

$$

PMZ161-310600-
REPUBLIC OF PALAU-

CITY           SKY/WX    TMP DP  RH WIND       PRES   REMARKS
KOROR AP       PTSUNNY   88  77  70 W14       29.79F HX 100
KOROR WSO      NOT AVBL

$$

PMZ171>174-310600-
FEDERATED STATES OF MICRONESIA-

CITY           SKY/WX    TMP DP  RH WIND       PRES   REMARKS
YAP AIRPORT    CLOUDY    84  79  84 VRB5      29.78F HX  96
CHUUK AP       PTSUNNY   91  82  75 S9        29.78F HX 114
POHNPEI AP     NOT AVBL
POHNPEI WSO    CLOUDY    84  75  74 E3        29.84R HX  92
KOSRAE AP      NOT AVBL

$$

PMZ181-310600-
REPUBLIC OF THE MARSHALL ISLANDS-

CITY           SKY/WX    TMP DP  RH WIND       PRES   REMARKS
KWAJALEIN AP   MOSUNNY   86  75  70 NE10      29.82S HX  95
MAJURO AP      NOT AVBL
MAJURO WSO     LGT RAIN  81  77  89 SE6       29.80S

$$




USA.gov is the U.S. government's official web portal to all federal, state and local government web resources and services.